RYR8414 EPMO-LATI

Flight info

Callsign RYR8414
Flight time 1h 50m
Altitude 34000
Route EVINA M985 KOTEK/N0442F350 DCT LENOV/N0445F360 DCT PARAK DCT POD DCT PETAK
Aircraft B738/M-SDE2E3FGHIRWXY/LB1

Departure

Time 2026-04-22 13:13
Airport Warsaw Modlin Airport (EPMO)

Arrival

Time 2026-04-22 15:04
Airport Tirana International Airport Mother Teresa (LATI)
Time Latitude Longitude Altitude Speed Heading
2026-04-22 13:00 52.44755 20.65341 337 ft 0 kts 206°
2026-04-22 13:06 52.44756 20.65342 337 ft 2 kts 206°
2026-04-22 13:06 52.44774 20.65356 334 ft 3 kts 206°
2026-04-22 13:07 52.44787 20.65366 346 ft 1 kts 187°
2026-04-22 13:07 52.44796 20.65364 344 ft 1 kts 115°
2026-04-22 13:07 52.44798 20.65351 354 ft 1 kts 91°
2026-04-22 13:07 52.44798 20.65338 337 ft 1 kts 84°
2026-04-22 13:08 52.44797 20.65326 332 ft 0 kts 81°
2026-04-22 13:08 52.44798 20.65328 332 ft 1 kts 79°
2026-04-22 13:08 52.44801 20.65363 332 ft 6 kts 80°
2026-04-22 13:09 52.44812 20.65460 333 ft 12 kts 80°
2026-04-22 13:09 52.44826 20.65624 336 ft 17 kts 82°
2026-04-22 13:09 52.44842 20.65824 335 ft 18 kts 82°
2026-04-22 13:09 52.44861 20.66019 337 ft 17 kts 81°
2026-04-22 13:10 52.44879 20.66205 335 ft 16 kts 81°
2026-04-22 13:10 52.44896 20.66385 334 ft 16 kts 81°
2026-04-22 13:10 52.44913 20.66559 336 ft 15 kts 81°
2026-04-22 13:10 52.44929 20.66726 337 ft 14 kts 81°
2026-04-22 13:11 52.44944 20.66886 337 ft 14 kts 81°
2026-04-22 13:11 52.44962 20.67037 335 ft 13 kts 64°
2026-04-22 13:11 52.45043 20.67071 333 ft 13 kts 351°
2026-04-22 13:11 52.45129 20.67048 335 ft 12 kts 351°
2026-04-22 13:12 52.45213 20.67018 336 ft 12 kts 342°
2026-04-22 13:12 52.45277 20.66983 336 ft 6 kts 335°
2026-04-22 13:12 52.45283 20.66914 333 ft 7 kts 258°
2026-04-22 13:12 52.45267 20.66752 332 ft 39 kts 262°
2026-04-22 13:13 52.45195 20.65944 333 ft 104 kts 261°
2026-04-22 13:13 52.45052 20.64457 372 ft 155 kts 264°
2026-04-22 13:13 52.44885 20.62675 943 ft 162 kts 263°
2026-04-22 13:13 52.44713 20.60758 1543 ft 177 kts 266°
2026-04-22 13:14 52.44531 20.58736 2384 ft 178 kts 266°
2026-04-22 13:14 52.44313 20.56845 3482 ft 163 kts 266°
2026-04-22 13:14 52.44325 20.54950 4071 ft 172 kts 294°
2026-04-22 13:14 52.45079 20.53474 4752 ft 175 kts 326°
2026-04-22 13:15 52.46184 20.52479 5235 ft 189 kts 344°
2026-04-22 13:15 52.47547 20.52276 5505 ft 211 kts 356°
2026-04-22 13:15 52.49091 20.52145 5745 ft 233 kts 355°
2026-04-22 13:15 52.50779 20.51994 6179 ft 249 kts 356°
2026-04-22 13:16 52.52511 20.51839 7084 ft 248 kts 356°
2026-04-22 13:16 52.54249 20.51679 7871 ft 252 kts 356°
2026-04-22 13:16 52.56022 20.51516 8651 ft 257 kts 357°
2026-04-22 13:16 52.57821 20.51520 9441 ft 261 kts 10°
2026-04-22 13:17 52.59488 20.52731 10209 ft 268 kts 36°
2026-04-22 13:17 52.60743 20.55050 10621 ft 290 kts 58°
2026-04-22 13:17 52.61382 20.58411 10838 ft 319 kts 77°
2026-04-22 13:17 52.61705 20.62058 11337 ft 330 kts 78°
2026-04-22 13:18 52.62019 20.65830 12063 ft 333 kts 78°
2026-04-22 13:18 52.62344 20.69599 12891 ft 334 kts 78°
2026-04-22 13:18 52.62682 20.73402 13658 ft 337 kts 78°
2026-04-22 13:18 52.62966 20.77264 14343 ft 342 kts 82°
2026-04-22 13:19 52.63119 20.81177 15063 ft 343 kts 83°
2026-04-22 13:19 52.63252 20.85116 15773 ft 345 kts 83°
2026-04-22 13:19 52.63397 20.89074 16466 ft 347 kts 83°
2026-04-22 13:19 52.63552 20.93041 17178 ft 348 kts 82°
2026-04-22 13:20 52.63437 20.97051 17844 ft 358 kts 99°
2026-04-22 13:20 52.62427 21.00858 18505 ft 371 kts 119°
2026-04-22 13:20 52.60666 21.04029 19088 ft 383 kts 139°
2026-04-22 13:20 52.58448 21.06501 19706 ft 387 kts 142°
2026-04-22 13:21 52.56161 21.08884 20281 ft 389 kts 143°
2026-04-22 13:21 52.53896 21.11228 20842 ft 391 kts 142°
2026-04-22 13:21 52.51589 21.13640 21412 ft 393 kts 142°
2026-04-22 13:21 52.49274 21.16091 21960 ft 395 kts 141°
2026-04-22 13:22 52.46960 21.18558 22479 ft 398 kts 141°
2026-04-22 13:22 52.44625 21.21046 23012 ft 400 kts 142°
2026-04-22 13:22 52.42085 21.22944 23479 ft 416 kts 162°
2026-04-22 13:22 52.39164 21.23235 23952 ft 431 kts 183°
2026-04-22 13:23 52.36258 21.21821 24390 ft 443 kts 204°
2026-04-22 13:23 52.33768 21.18801 24765 ft 452 kts 227°
2026-04-22 13:23 52.31814 21.14805 25156 ft 456 kts 232°
2026-04-22 13:23 52.29900 21.10616 25458 ft 461 kts 232°
2026-04-22 13:24 52.27926 21.06420 25810 ft 464 kts 231°
2026-04-22 13:24 52.25915 21.02293 26174 ft 466 kts 228°
2026-04-22 13:24 52.23646 20.98491 26538 ft 467 kts 220°
2026-04-22 13:24 52.21210 20.94972 26905 ft 469 kts 218°
2026-04-22 13:25 52.18722 20.91513 27246 ft 471 kts 218°
2026-04-22 13:25 52.16253 20.88071 27571 ft 475 kts 218°
2026-04-22 13:25 52.13744 20.84520 27900 ft 478 kts 218°
2026-04-22 13:25 52.11247 20.80931 28240 ft 480 kts 219°
2026-04-22 13:26 52.08747 20.77303 28555 ft 483 kts 219°
2026-04-22 13:26 52.06233 20.73647 28880 ft 486 kts 219°
2026-04-22 13:26 52.03709 20.69977 29195 ft 489 kts 219°
2026-04-22 13:26 52.01167 20.66289 29492 ft 491 kts 218°
2026-04-22 13:27 51.98614 20.62598 29804 ft 493 kts 218°
2026-04-22 13:27 51.96037 20.58910 30202 ft 491 kts 216°
2026-04-22 13:27 51.93193 20.55971 30530 ft 480 kts 196°
2026-04-22 13:27 51.90074 20.54207 30996 ft 472 kts 192°
2026-04-22 13:28 51.86960 20.52506 31366 ft 471 kts 193°
2026-04-22 13:28 51.83897 20.50788 31657 ft 472 kts 193°
2026-04-22 13:28 51.80791 20.49006 31967 ft 473 kts 194°
2026-04-22 13:28 51.77700 20.47208 32325 ft 472 kts 194°
2026-04-22 13:29 51.74620 20.45408 32698 ft 470 kts 194°
2026-04-22 13:29 51.71546 20.43615 33034 ft 469 kts 194°
2026-04-22 13:29 51.68471 20.41829 33350 ft 469 kts 194°
2026-04-22 13:29 51.65402 20.40099 33686 ft 466 kts 191°
2026-04-22 13:30 51.62252 20.39162 33965 ft 456 kts 179°
2026-04-22 13:30 51.59094 20.38748 34146 ft 457 kts 178°
2026-04-22 13:30 51.55906 20.38408 34136 ft 460 kts 178°
2026-04-22 13:31 51.49520 20.37612 34125 ft 458 kts 179°
2026-04-22 13:31 51.43254 20.36674 34143 ft 454 kts 180°
2026-04-22 13:32 51.36957 20.35723 34129 ft 454 kts 179°
2026-04-22 13:32 51.30664 20.34785 34135 ft 454 kts 179°
2026-04-22 13:33 51.24353 20.33848 34134 ft 455 kts 179°
2026-04-22 13:33 51.18093 20.32921 34139 ft 455 kts 180°
2026-04-22 13:34 51.11767 20.31985 34152 ft 456 kts 180°
2026-04-22 13:34 51.05437 20.31051 34141 ft 457 kts 180°
2026-04-22 13:35 50.99129 20.30122 34134 ft 458 kts 180°
2026-04-22 13:35 50.92783 20.29191 34137 ft 458 kts 180°
2026-04-22 13:36 50.86420 20.28260 34138 ft 459 kts 180°
2026-04-22 13:36 50.80102 20.27338 34137 ft 459 kts 180°
2026-04-22 13:37 50.73737 20.26411 34147 ft 459 kts 180°
2026-04-22 13:37 50.67374 20.25586 34126 ft 457 kts 175°
2026-04-22 13:38 50.61203 20.27034 34138 ft 445 kts 155°
2026-04-22 13:38 50.55386 20.30499 34370 ft 448 kts 153°
2026-04-22 13:38 50.52479 20.32275 34614 ft 447 kts 153°
2026-04-22 13:39 50.49612 20.34014 34855 ft 447 kts 154°
2026-04-22 13:39 50.46702 20.35763 35062 ft 447 kts 154°
2026-04-22 13:39 50.40837 20.39249 35122 ft 453 kts 154°
2026-04-22 13:40 50.34938 20.42722 35109 ft 451 kts 154°
2026-04-22 13:40 50.29082 20.46155 35113 ft 447 kts 154°
2026-04-22 13:41 50.23269 20.49558 35109 ft 445 kts 154°
2026-04-22 13:41 50.17468 20.52949 35112 ft 444 kts 155°
2026-04-22 13:42 50.11711 20.56306 35123 ft 445 kts 155°
2026-04-22 13:42 50.05888 20.59692 35118 ft 447 kts 155°
2026-04-22 13:43 50.00035 20.63086 35115 ft 450 kts 155°
2026-04-22 13:43 49.94177 20.66474 35130 ft 452 kts 155°
2026-04-22 13:44 49.88254 20.69891 35114 ft 455 kts 155°
2026-04-22 13:44 49.82296 20.73318 35102 ft 457 kts 155°
2026-04-22 13:45 49.76363 20.76721 35124 ft 458 kts 155°
2026-04-22 13:45 49.70388 20.80139 35107 ft 458 kts 155°
2026-04-22 13:46 49.64406 20.83553 35109 ft 458 kts 156°
2026-04-22 13:46 49.58427 20.86957 35100 ft 457 kts 156°
2026-04-22 13:47 49.52460 20.90345 35098 ft 456 kts 156°
2026-04-22 13:47 49.46508 20.93717 35093 ft 455 kts 156°
2026-04-22 13:48 49.40617 20.97046 35113 ft 453 kts 156°
2026-04-22 13:48 49.34573 20.99818 35087 ft 458 kts 170°
2026-04-22 13:49 49.28172 20.99547 35121 ft 467 kts 189°
2026-04-22 13:49 49.21769 20.97497 35370 ft 471 kts 190°
2026-04-22 13:50 49.19643 20.96809 35510 ft 471 kts 190°
2026-04-22 13:50 49.15355 20.95442 35850 ft 469 kts 190°
2026-04-22 13:50 49.13234 20.94778 35996 ft 468 kts 189°
2026-04-22 13:50 49.08989 20.93467 36086 ft 472 kts 189°
2026-04-22 13:51 49.02543 20.91504 36090 ft 471 kts 189°
2026-04-22 13:51 48.96163 20.89574 36090 ft 467 kts 189°
2026-04-22 13:52 48.90873 20.87983 36091 ft 464 kts 189°
2026-04-22 13:52 48.84549 20.86072 36091 ft 462 kts 190°
2026-04-22 13:53 48.78247 20.84173 36093 ft 461 kts 189°
2026-04-22 13:53 48.71951 20.82283 36104 ft 461 kts 190°
2026-04-22 13:54 48.65631 20.80392 36096 ft 463 kts 190°
2026-04-22 13:54 48.59333 20.78512 36093 ft 466 kts 190°
2026-04-22 13:55 48.52957 20.76612 36107 ft 468 kts 190°
2026-04-22 13:55 48.46551 20.74709 36090 ft 470 kts 190°
2026-04-22 13:56 48.40113 20.72801 36091 ft 471 kts 190°
2026-04-22 13:56 48.33676 20.70898 36090 ft 471 kts 190°
2026-04-22 13:57 48.27249 20.69004 36086 ft 471 kts 191°
2026-04-22 13:57 48.20860 20.67125 36088 ft 470 kts 191°
2026-04-22 13:58 48.14455 20.65246 36091 ft 468 kts 191°
2026-04-22 13:58 48.08060 20.63376 36089 ft 467 kts 191°
2026-04-22 13:59 48.01691 20.61517 36079 ft 466 kts 191°
2026-04-22 13:59 47.95349 20.59671 36095 ft 464 kts 191°
2026-04-22 14:00 47.89011 20.57829 36094 ft 463 kts 191°
2026-04-22 14:00 47.82688 20.55999 36102 ft 462 kts 191°
2026-04-22 14:01 47.76373 20.54175 36097 ft 462 kts 191°
2026-04-22 14:01 47.70058 20.52355 36098 ft 462 kts 191°
2026-04-22 14:02 47.63751 20.50542 36100 ft 462 kts 191°
2026-04-22 14:02 47.57478 20.48743 36105 ft 462 kts 191°
2026-04-22 14:03 47.51146 20.46931 36108 ft 463 kts 191°
2026-04-22 14:03 47.44809 20.45122 36107 ft 464 kts 191°
2026-04-22 14:04 47.38456 20.43314 36105 ft 465 kts 191°
2026-04-22 14:04 47.32093 20.41507 36107 ft 465 kts 191°
2026-04-22 14:05 47.25760 20.39713 36104 ft 466 kts 191°
2026-04-22 14:06 47.16216 20.37017 36102 ft 465 kts 192°
2026-04-22 14:06 47.09857 20.35227 36105 ft 465 kts 192°
2026-04-22 14:07 47.03514 20.33445 36107 ft 464 kts 192°
2026-04-22 14:07 46.97195 20.31674 36112 ft 463 kts 191°
2026-04-22 14:08 46.90867 20.29905 36112 ft 462 kts 191°
2026-04-22 14:08 46.84576 20.28151 36115 ft 462 kts 191°
2026-04-22 14:09 46.78256 20.26393 36118 ft 461 kts 192°
2026-04-22 14:09 46.71951 20.24643 36117 ft 461 kts 192°
2026-04-22 14:10 46.65648 20.22898 36123 ft 461 kts 192°
2026-04-22 14:10 46.59333 20.21153 36119 ft 461 kts 192°
2026-04-22 14:11 46.53072 20.19428 36123 ft 461 kts 192°
2026-04-22 14:11 46.46767 20.17694 36123 ft 461 kts 192°
2026-04-22 14:12 46.40452 20.15962 36119 ft 461 kts 192°
2026-04-22 14:12 46.34137 20.14234 36125 ft 461 kts 192°
2026-04-22 14:13 46.27853 20.12518 36129 ft 461 kts 192°
2026-04-22 14:13 46.21540 20.10798 36123 ft 461 kts 192°
2026-04-22 14:14 46.15224 20.09089 36127 ft 462 kts 192°
2026-04-22 14:14 46.08909 20.07559 36128 ft 462 kts 191°
2026-04-22 14:15 46.02545 20.06094 36130 ft 463 kts 191°
2026-04-22 14:15 45.96216 20.04628 36132 ft 463 kts 191°
2026-04-22 14:16 45.89855 20.03139 36131 ft 463 kts 191°
2026-04-22 14:16 45.83497 20.01647 36131 ft 463 kts 191°
2026-04-22 14:17 45.77130 20.00156 36129 ft 463 kts 191°
2026-04-22 14:17 45.70909 19.98702 36138 ft 463 kts 191°
2026-04-22 14:18 45.64586 19.97229 36130 ft 463 kts 191°
2026-04-22 14:18 45.58222 19.95750 36122 ft 462 kts 192°
2026-04-22 14:19 45.51870 19.94276 36130 ft 462 kts 192°
2026-04-22 14:19 45.45530 19.92809 36131 ft 461 kts 192°
2026-04-22 14:20 45.36024 19.90615 36127 ft 460 kts 192°
2026-04-22 14:20 45.29735 19.89168 36132 ft 460 kts 192°
2026-04-22 14:21 45.20245 19.86990 36113 ft 460 kts 192°
2026-04-22 14:22 45.10778 19.84825 36128 ft 459 kts 192°
2026-04-22 14:23 45.01298 19.82664 36132 ft 460 kts 192°
2026-04-22 14:23 44.95044 19.81242 36131 ft 460 kts 192°
2026-04-22 14:24 44.88726 19.79809 36133 ft 460 kts 192°
2026-04-22 14:24 44.82395 19.78377 36114 ft 460 kts 192°
2026-04-22 14:25 44.76075 19.76950 36127 ft 460 kts 192°
2026-04-22 14:25 44.69745 19.75524 36130 ft 460 kts 192°
2026-04-22 14:26 44.63425 19.74104 36141 ft 460 kts 192°
2026-04-22 14:26 44.57108 19.72687 36136 ft 460 kts 193°
2026-04-22 14:27 44.50823 19.71280 36146 ft 460 kts 193°
2026-04-22 14:27 44.44495 19.69867 36136 ft 460 kts 193°
2026-04-22 14:28 44.38175 19.68458 36126 ft 460 kts 193°
2026-04-22 14:28 44.31888 19.67061 36141 ft 460 kts 193°
2026-04-22 14:29 44.25569 19.65659 36138 ft 460 kts 193°
2026-04-22 14:29 44.19248 19.64260 36133 ft 459 kts 193°
2026-04-22 14:30 44.12921 19.62863 36132 ft 459 kts 193°
2026-04-22 14:30 44.06619 19.61473 36143 ft 459 kts 194°
2026-04-22 14:31 44.00360 19.60091 36123 ft 457 kts 194°
2026-04-22 14:31 43.94086 19.58718 36124 ft 458 kts 194°
2026-04-22 14:32 43.87790 19.57342 36134 ft 457 kts 194°
2026-04-22 14:32 43.81509 19.55969 36132 ft 457 kts 194°
2026-04-22 14:33 43.75229 19.54599 36133 ft 457 kts 194°
2026-04-22 14:33 43.68944 19.53231 36133 ft 457 kts 194°
2026-04-22 14:34 43.62662 19.51867 36132 ft 457 kts 194°
2026-04-22 14:34 43.56372 19.50504 36120 ft 457 kts 194°
2026-04-22 14:35 43.50126 19.49154 36088 ft 457 kts 194°
2026-04-22 14:35 43.43853 19.47800 36117 ft 457 kts 195°
2026-04-22 14:36 43.37576 19.46448 36125 ft 457 kts 195°
2026-04-22 14:36 43.31278 19.45095 36102 ft 458 kts 195°
2026-04-22 14:37 43.24984 19.43746 36115 ft 457 kts 195°
2026-04-22 14:37 43.19740 19.42623 35940 ft 460 kts 195°
2026-04-22 14:37 43.15549 19.41726 35602 ft 459 kts 195°
2026-04-22 14:38 43.12394 19.41056 35365 ft 456 kts 195°
2026-04-22 14:38 43.10323 19.40616 35202 ft 455 kts 195°
2026-04-22 14:38 43.07194 19.39949 34970 ft 455 kts 195°
2026-04-22 14:38 43.04068 19.39283 34751 ft 455 kts 195°
2026-04-22 14:39 43.00939 19.38618 34489 ft 455 kts 195°
2026-04-22 14:39 42.97836 19.37959 33974 ft 454 kts 196°
2026-04-22 14:39 42.94703 19.37294 33315 ft 454 kts 196°
2026-04-22 14:40 42.88460 19.35971 32069 ft 453 kts 197°
2026-04-22 14:40 42.85366 19.35219 31435 ft 448 kts 201°
2026-04-22 14:40 42.82351 19.34436 31052 ft 446 kts 197°
2026-04-22 14:40 42.79280 19.33846 30568 ft 444 kts 196°
2026-04-22 14:41 42.76229 19.33291 30102 ft 440 kts 196°
2026-04-22 14:41 42.73218 19.32719 29564 ft 434 kts 197°
2026-04-22 14:41 42.70261 19.32133 29118 ft 426 kts 197°
2026-04-22 14:41 42.67344 19.31534 28671 ft 420 kts 198°
2026-04-22 14:42 42.64466 19.30931 28209 ft 416 kts 198°
2026-04-22 14:42 42.61600 19.30323 27737 ft 417 kts 198°
2026-04-22 14:42 42.58726 19.29713 27308 ft 418 kts 197°
2026-04-22 14:42 42.55860 19.29109 26814 ft 415 kts 198°
2026-04-22 14:43 42.53062 19.28524 26402 ft 410 kts 198°
2026-04-22 14:43 42.50252 19.27938 25989 ft 404 kts 198°
2026-04-22 14:43 42.47483 19.27359 25541 ft 401 kts 198°
2026-04-22 14:43 42.44728 19.26782 25104 ft 398 kts 197°
2026-04-22 14:44 42.41998 19.26212 24679 ft 395 kts 197°
2026-04-22 14:44 42.39288 19.25668 24255 ft 394 kts 194°
2026-04-22 14:44 42.36528 19.25577 23882 ft 399 kts 185°
2026-04-22 14:44 42.33765 19.25842 23497 ft 398 kts 184°
2026-04-22 14:45 42.31005 19.26145 23006 ft 397 kts 184°
2026-04-22 14:45 42.28268 19.26450 22582 ft 393 kts 184°
2026-04-22 14:45 42.25547 19.26744 22143 ft 391 kts 184°
2026-04-22 14:45 42.22836 19.27023 21727 ft 391 kts 184°
2026-04-22 14:46 42.20155 19.27290 21296 ft 391 kts 184°
2026-04-22 14:46 42.17448 19.27557 20824 ft 387 kts 185°
2026-04-22 14:46 42.14772 19.27821 20437 ft 383 kts 185°
2026-04-22 14:46 42.12124 19.28078 20023 ft 380 kts 185°
2026-04-22 14:47 42.09486 19.28331 19619 ft 380 kts 185°
2026-04-22 14:47 42.06843 19.28583 19209 ft 380 kts 185°
2026-04-22 14:47 42.04202 19.28837 18797 ft 380 kts 184°
2026-04-22 14:47 42.01567 19.29091 18386 ft 378 kts 184°
2026-04-22 14:48 41.98959 19.29342 17914 ft 376 kts 184°
2026-04-22 14:48 41.96357 19.29593 17464 ft 373 kts 184°
2026-04-22 14:48 41.93774 19.29842 17065 ft 370 kts 184°
2026-04-22 14:48 41.91219 19.30088 16643 ft 366 kts 183°
2026-04-22 14:49 41.88720 19.30327 16250 ft 363 kts 182°
2026-04-22 14:49 41.86210 19.30567 15848 ft 360 kts 182°
2026-04-22 14:49 41.83714 19.30806 15451 ft 357 kts 181°
2026-04-22 14:49 41.81244 19.31042 15063 ft 355 kts 181°
2026-04-22 14:50 41.78798 19.31460 14661 ft 358 kts 167°
2026-04-22 14:50 41.76580 19.33016 14332 ft 362 kts 143°
2026-04-22 14:50 41.74833 19.35447 14118 ft 362 kts 131°
2026-04-22 14:50 41.73227 19.38062 13886 ft 366 kts 130°
2026-04-22 14:51 41.71616 19.40724 13622 ft 368 kts 129°
2026-04-22 14:51 41.69998 19.43371 13348 ft 366 kts 130°
2026-04-22 14:51 41.68378 19.45982 13080 ft 363 kts 130°
2026-04-22 14:51 41.66765 19.48557 12811 ft 360 kts 130°
2026-04-22 14:52 41.65153 19.51095 12538 ft 357 kts 134°
2026-04-22 14:52 41.63190 19.53052 12171 ft 350 kts 158°
2026-04-22 14:52 41.60888 19.53934 11809 ft 341 kts 175°
2026-04-22 14:52 41.58534 19.54281 11380 ft 339 kts 177°
2026-04-22 14:53 41.56218 19.54566 11025 ft 337 kts 177°
2026-04-22 14:53 41.53915 19.54845 10922 ft 326 kts 177°
2026-04-22 14:53 41.51701 19.55122 10817 ft 315 kts 178°
2026-04-22 14:53 41.49553 19.55399 10718 ft 305 kts 178°
2026-04-22 14:54 41.47454 19.55675 10528 ft 301 kts 178°
2026-04-22 14:54 41.45372 19.55951 10258 ft 300 kts 178°
2026-04-22 14:54 41.43301 19.56228 9985 ft 298 kts 177°
2026-04-22 14:54 41.41262 19.56502 9715 ft 296 kts 177°
2026-04-22 14:55 41.39216 19.56777 9394 ft 294 kts 177°
2026-04-22 14:55 41.37180 19.57053 9058 ft 294 kts 177°
2026-04-22 14:55 41.35147 19.57328 8715 ft 294 kts 177°
2026-04-22 14:55 41.33122 19.57602 8451 ft 291 kts 177°
2026-04-22 14:56 41.31115 19.57874 8092 ft 291 kts 177°
2026-04-22 14:56 41.29096 19.58146 7762 ft 291 kts 177°
2026-04-22 14:56 41.27086 19.58418 7505 ft 288 kts 176°
2026-04-22 14:56 41.25101 19.58687 7231 ft 286 kts 176°
2026-04-22 14:57 41.23124 19.58954 6895 ft 286 kts 176°
2026-04-22 14:57 41.21143 19.59238 6587 ft 286 kts 172°
2026-04-22 14:57 41.19302 19.60240 6184 ft 291 kts 141°
2026-04-22 14:57 41.18046 19.62294 5856 ft 288 kts 112°
2026-04-22 14:58 41.17599 19.64848 5498 ft 284 kts 87°
2026-04-22 14:58 41.17738 19.67448 5150 ft 280 kts 81°
2026-04-22 14:58 41.17951 19.69982 4839 ft 271 kts 78°
2026-04-22 14:58 41.18576 19.72224 4525 ft 257 kts 51°
2026-04-22 14:59 41.19860 19.73735 4270 ft 242 kts 26°
2026-04-22 14:59 41.21385 19.74498 4024 ft 230 kts
2026-04-22 14:59 41.22954 19.74554 3757 ft 219 kts 353°
2026-04-22 14:59 41.24426 19.74350 3543 ft 207 kts 353°
2026-04-22 15:00 41.25819 19.74153 3301 ft 195 kts 352°
2026-04-22 15:00 41.27140 19.73970 3030 ft 187 kts 352°
2026-04-22 15:00 41.28399 19.73796 2806 ft 181 kts 353°
2026-04-22 15:00 41.29632 19.73630 2577 ft 177 kts 354°
2026-04-22 15:01 41.30838 19.73469 2324 ft 171 kts 352°
2026-04-22 15:01 41.32013 19.73311 2062 ft 164 kts 354°
2026-04-22 15:01 41.33128 19.73165 1815 ft 159 kts 353°
2026-04-22 15:01 41.34198 19.73024 1575 ft 148 kts 352°
2026-04-22 15:02 41.35197 19.72891 1340 ft 142 kts 351°
2026-04-22 15:02 41.36162 19.72760 1136 ft 138 kts 353°
2026-04-22 15:02 41.37120 19.72634 922 ft 139 kts 351°
2026-04-22 15:02 41.38094 19.72507 736 ft 140 kts 349°
2026-04-22 15:03 41.39084 19.72375 462 ft 145 kts 349°
2026-04-22 15:03 41.40069 19.72242 210 ft 142 kts 349°
2026-04-22 15:03 41.41019 19.72115 133 ft 120 kts 353°
2026-04-22 15:03 41.41642 19.72034 124 ft 60 kts 354°
2026-04-22 15:04 41.41846 19.72005 119 ft 7 kts 348°
2026-04-22 15:04 41.41877 19.71964 123 ft 7 kts 280°
2026-04-22 15:04 41.41875 19.71903 123 ft 6 kts 262°
2026-04-22 15:04 41.41869 19.71844 123 ft 6 kts 262°
2026-04-22 15:05 41.41864 19.71786 123 ft 6 kts 265°
2026-04-22 15:05 41.41860 19.71729 123 ft 6 kts 265°
2026-04-22 15:05 41.41857 19.71673 122 ft 6 kts 265°
2026-04-22 15:05 41.41860 19.71619 119 ft 6 kts 293°
2026-04-22 15:06 41.41879 19.71594 121 ft 6 kts 330°
2026-04-22 15:06 41.41935 19.71582 122 ft 7 kts 354°
2026-04-22 15:06 41.41984 19.71562 118 ft 7 kts 301°
2026-04-22 15:06 41.41987 19.71516 118 ft 0 kts 262°